Flag for Germany Weather past 2 weeks in Troisdorf, North Rhine-Westphalia, Germany

Now
72 °F

Broken clouds.


Feels Like: 76 °F
Forecast: 59 / 70 °F
Wind: 9 mph from South

Location: Koeln / Bonn

Current Time: Aug 28, 2014 at 3:24:08 PM

Latest Report: Aug 28, 2014 at 2:50 PM


Visibility: N/A

Pressure: 29.98 "Hg

Humidity: 61%

Dew point: 57 °F

Location of TroisdorfLocation

Historic Weather in Troisdorf — Graph

°F

Troisdorf temperature yesterday

Maximum temperature yesterday: 70 °F (at 3:20 PM)
Minimum temperature yesterday: 48 °F (at 7:20 AM)
Average temperature yesterday: 59 °F

Past Weeks' High & Low Weather Summary

 TemperatureHumidityPressure
High73 °F (Aug 28, 1:20 PM)100% (Aug 16, 1:50 AM)30.09 "Hg (Aug 16, 1:50 AM)
Low45 °F (Aug 20, 5:20 AM)40% (Aug 18, 2:20 PM)29.62 "Hg (Aug 26, 4:50 AM)
Average57 °F80%29.92 "Hg
* Reported Aug 13 2:20 PM — Aug 28 2:20 PM, Troisdorf, Weather by CustomWeather, © 2014

Note: Actual official high and low records may vary slightly from our data, if they occured in-between our weather recording intervals... More about our weather records

Advertising

Troisdorf weather history for previous 24 hours

 ConditionsComfort  
Time TempWeatherWind HumidityBarometerVisibility
2:20 PM
Aug 28
72 °FBroken clouds.12 mph61%29.98 "HgN/A
1:50 PM73 °FBroken clouds.12 mph65%29.98 "HgN/A
1:20 PM73 °FBroken clouds.9 mph57%29.98 "HgN/A
12:50 PM72 °FBroken clouds.10 mph65%29.98 "HgN/A
12:20 PM72 °FPartly sunny.10 mph65%29.98 "HgN/A
11:50 AM70 °FScattered clouds.7 mph69%30.01 "HgN/A
11:20 AM66 °FScattered clouds.6 mph73%30.01 "HgN/A
10:50 AM64 °FScattered clouds.7 mph73%30.01 "HgN/A
10:20 AM64 °FScattered clouds.7 mph78%30.01 "HgN/A
9:50 AM61 °FPartly sunny.7 mph77%30.01 "HgN/A
9:20 AM59 °FPartly sunny.8 mph82%30.01 "HgN/A
8:50 AM59 °FSunny.6 mph82%30.01 "Hg10 mi
8:20 AM57 °FScattered clouds.7 mph82%30.01 "HgN/A
7:50 AM57 °FSunny.6 mph82%30.01 "Hg10 mi
7:20 AM55 °FPassing clouds.5 mph88%30.01 "HgN/A
6:50 AM55 °FPassing clouds.5 mph88%30.01 "HgN/A
6:20 AM55 °FPassing clouds.5 mph88%30.01 "HgN/A
5:50 AM55 °FPartly cloudy.5 mph88%30.01 "HgN/A
5:20 AM55 °FPassing clouds.5 mph88%30.01 "HgN/A
4:50 AM55 °FPassing clouds.6 mph82%30.01 "HgN/A
4:20 AM55 °FPassing clouds.3 mph82%30.01 "HgN/A
3:50 AM55 °FClear.5 mph82%30.01 "Hg10 mi
3:20 AM55 °FPassing clouds.6 mph82%30.01 "HgN/A
2:50 AM55 °FPassing clouds.7 mph82%30.01 "HgN/A
2:20 AM57 °FPassing clouds.6 mph77%30.01 "HgN/A
1:50 AM55 °FClear.5 mph82%30.04 "Hg10 mi
1:20 AM57 °FClear.5 mph77%30.04 "Hg10 mi
12:50 AM57 °FClear.5 mph77%30.04 "Hg10 mi
12:20 AM57 °FClear.5 mph77%30.04 "Hg10 mi
11:50 PM
Aug 27
59 °FClear.5 mph72%30.04 "Hg10 mi
11:20 PM59 °FPassing clouds.5 mph77%30.04 "HgN/A
10:50 PM59 °FPassing clouds.5 mph77%30.04 "HgN/A
10:20 PM59 °FPassing clouds.5 mph77%30.04 "HgN/A
9:50 PM59 °FPassing clouds.5 mph77%30.04 "HgN/A
9:20 PM59 °FSunny.2 mph77%30.04 "Hg10 mi
8:50 PM61 °FSunny.5 mph72%30.01 "Hg10 mi
7:50 PM64 °FPartly sunny.3 mph68%30.01 "HgN/A
7:20 PM68 °FScattered clouds.5 mph56%30.01 "HgN/A
6:20 PM70 °FPassing clouds.5 mph53%30.01 "HgN/A
5:50 PM70 °FPassing clouds.6 mph53%30.01 "HgN/A
4:20 PM70 °FScattered clouds.5 mph50%30.01 "HgN/A
3:50 PM70 °FScattered clouds.5 mph50%30.01 "HgN/A
3:20 PM70 °FPassing clouds.5 mph50%30.01 "HgN/A
Weather by CustomWeather, © 2014

See weather overviewHow to use our weather pages